User: anonymous   Login
Location: Unspecified
(0.0000°N, 0.0000°E)
Time: 06:08:31
(UTC+00:00)
Language:

TISAT 1 - Orbit

View from above orbital plane
View from above orbital plane
View from above satellite
View from above satellite

Ground track
Ground track

The orbit data is extracted from the following two-line orbital elements,

1 36799U 10035E   17296.30339449 +.00000915 +00000-0 +99619-4 0  9996
2 36799 098.0776 061.7541 0011124 265.5223 094.4723 14.90559154394661
Epoch (UTC): 23 October 2017 07:16:53
Eccentricity: 0.0011124
inclination: 98.0776°
perigee height: 588 km
apogee height: 604 km
right ascension of ascending node: 61.7541°
argument of perigee: 265.5223°
revolutions per day: 14.90559154
mean anomaly at epoch: 94.4723°
orbit number at epoch: 39466

The dashed part of the orbit path shows where the satellite is in the earth's shadow,  

DLR